[Iaude] MPEC E221: 2022 EP6 [a=2.63,e=0.54,i=3.3,H=24.2]

mpec at marsden.cfa.harvard.edu mpec at marsden.cfa.harvard.edu
Tue Mar 15 07:33:07 EDT 2022


M.P.E.C. 2022-E221                               Issued 2022 March 15, 11:31 UT

     The Minor Planet Electronic Circulars contain information on unusual
         minor planets and routine data on comets.  They are published
    on behalf of Division F of the International Astronomical Union by the
          Minor Planet Center, Smithsonian Astrophysical Observatory,
                          Cambridge, MA 02138, U.S.A.

             Prepared using the Tamkin Foundation Computer Network

                              MPC at CFA.HARVARD.EDU
            URL https://www.minorplanetcenter.net/    ISSN 1523-6714

                                    2022 EP6                                    


Observations:
     K22E06P* C2022 03 06.29474310 08 32.264+28 09 55.21         22.47wUEE221F52
     K22E06P  C2022 03 06.30616310 08 33.224+28 09 54.66         22.32wUEE221F52
     K22E06P  C2022 03 06.31759710 08 34.168+28 09 54.15         22.15wUEE221F52
     K22E06P  C2022 03 06.32899410 08 35.129+28 09 53.64         22.41wUEE221F52
     K22E06P  C2022 03 06.41762910 08 42.355+28 09 46.09         22.58GVEE221F52
     K22E06P  C2022 03 06.41825910 08 42.425+28 09 46.38         21.90GVEE221F52
     K22E06P ^C2022 03 09.35954610 13 40.724+28 01 18.56         22.78GVEE221568
     K22E06P ^C2022 03 09.36470610 13 41.190+28 01 17.46         22.69GVEE221568
     K22E06P ^C2022 03 09.37163610 13 41.818+28 01 15.80         22.69GVEE221568
     K22E06P ^C2022 03 09.38167610 13 42.725+28 01 13.41         22.78GVEE221568
     K22E06P ^C2022 03 09.38598610 13 43.122+28 01 12.46         22.94GVEE221568
     K22E06P ^C2022 03 09.38990610 13 43.460+28 01 11.46         22.82GVEE221568

Observer details:
568 Mauna Kea.  Observers J. Fairlamb, Y. Ramanjooloo.  Measurers R. Weryk, Y.
    Ramanjooloo, R. Wainscoat.  2.24-m University of Hawaii reflector + CCD.
F52 Pan-STARRS 2, Haleakala.  Observers J. Bulger, T. Lowe, A. Schultz, I.
    Smith, K. Chambers, T. Dukes.  Measurers K. Chambers, S. Chastel, T. de
    Boer, J. Fairlamb, H. Gao, M. Huber, C.-C. Lin, E. Magnier, Y.
    Ramanjooloo, R. Wainscoat, R. Weryk.  1.8-m Ritchey-Chretien + CCD.

Orbital elements:
2022 EP6                                                 Earth MOID = 0.2268 AU
Epoch 2022 Jan. 21.0 TT = JDT 2459600.5                 Bell                    
M 345.92319              (2000.0)            P               Q                  
n   0.23084939     Peri.   92.88786     -0.99629692     -0.06411872             
a   2.6317839      Node    83.44067     +0.03567069     -0.91443473             
e   0.5391133      Incl.    3.30548     +0.07823079     -0.39962221             
P   4.27           H   24.27          G   0.15           U   9                  
Residuals in seconds of arc
220306 F52  0.0   0.0     220306 F52  0.1-  0.2-    220309 568  0.0   0.0
220306 F52  0.0   0.1-    220306 F52  0.1+  0.2+    220309 568  0.0   0.0
220306 F52  0.1-  0.0     220309 568  0.0   0.0     220309 568  0.1+  0.0
220306 F52  0.1+  0.0     220309 568  0.0   0.1+    220309 568  0.1-  0.0

Ephemeris:
2022 EP6                 a,e,i = 2.63, 0.54, 3                   q = 1.2130
Date    TT    R. A. (2000) Decl.     Delta      r    Elong.  Phase     V
2022 02 13    09 44 07.9 +26 24 41   0.3061  1.2874   167.1     9.8    22.9
...
2022 02 28    09 59 23.5 +28 05 09   0.2665  1.2410   157.6    17.7    22.8
...
2022 03 08    10 11 19.3 +28 06 02   0.2552  1.2250   152.8    21.7    22.8
...
2022 03 14    10 22 22.4 +27 33 04   0.2508  1.2173   149.8    24.3    22.8
2022 03 15    10 24 23.0 +27 24 33   0.2504  1.2164   149.3    24.6    22.8
2022 03 16    10 26 26.4 +27 15 09   0.2501  1.2156   148.9    25.0    22.8
...
2022 03 22    10 39 37.7 +26 00 18   0.2501  1.2130   146.7    26.8    22.9
...
2022 03 30    10 58 56.4 +23 33 28   0.2555  1.2156   144.5    28.5    23.0
...
2022 04 14    11 37 20.8 +17 05 40   0.2836  1.2388   142.1    29.8    23.3

M. P. C. Staff               (C) Copyright 2022 MPC           M.P.E.C. 2022-E221




More information about the Iaude mailing list